Flag for Turkey Weather past 2 weeks in Bursa, Turkey

Now
53 °F

Scattered clouds.


Feels Like: 53 °F
Forecast: 46 / 73 °F
Wind: 1 mph from East

Location: Bursa


UV Index: 0 (Low)

Visibility: 9 mi


Pressure: 29.86 "Hg

Humidity: 69%

Dew point: 43 °F

Location of BursaLocation

Historic Weather in Bursa

°F

Bursa temperature yesterday

Maximum temperature yesterday: 65 °F (at 5:00 PM)
Minimum temperature yesterday: 52 °F (at 5:00 AM)
Average temperature yesterday: 58 °F

Past Weeks' High & Low Weather Summary

 TemperatureHumidityPressure
High76 °F (Apr 6, 3:00 PM)100% (Apr 13, 3:00 AM)30.14 "Hg (Apr 13, 3:00 AM)
Low37 °F (Apr 13, 7:00 AM)27% (Apr 5, 4:00 PM)29.64 "Hg (Apr 18, 4:00 AM)
Average57 °F66%29.95 "Hg
* Reported Apr 4 8:00 AM — Apr 19 8:00 AM, Bursa, Weather by CustomWeather, © 2014

Note: Actual official high and low records may vary slightly from our data, if they occured in-between our weather recording intervals... More about our weather records

Advertising

Historic Weather Conditions — Data for Previous 24 hours

 ConditionsComfort  
Time TempWeatherWind HumidityBarometerVisibility
8:00 AM
Apr 19
53 °FScattered clouds.1 mph69%29.86 "Hg9 mi
7:00 AM46 °FScattered clouds.2 mph84%29.86 "Hg9 mi
6:00 AM48 °FPassing clouds.2 mph77%29.84 "Hg9 mi
5:00 AM50 °FPassing clouds.3 mph73%29.83 "Hg9 mi
4:00 AM50 °FPassing clouds.5 mph68%29.84 "Hg9 mi
3:00 AM55 °FPassing clouds.5 mph52%29.83 "Hg9 mi
2:00 AM56 °FPassing clouds.3 mph49%29.83 "Hg9 mi
1:00 AM59 °FPassing clouds.7 mph45%29.83 "Hg9 mi
11:00 PM
Apr 18
59 °FPassing clouds.7 mph46%29.82 "Hg9 mi
10:00 PM58 °FPassing clouds.6 mph48%29.80 "Hg9 mi
9:00 PM58 °FPassing clouds.5 mph51%29.79 "Hg9 mi
8:00 PM60 °FPassing clouds.9 mph47%29.78 "Hg9 mi
7:00 PM62 °FPartly sunny.16 mph44%29.75 "Hg9 mi
6:00 PM63 °FSprinkles. Overcast.10 mph47%29.73 "Hg6 mi
5:00 PM65 °FPartly sunny.13 mph42%29.72 "Hg9 mi
4:00 PM64 °FPartly sunny.14 mph49%29.71 "Hg9 mi
3:00 PM63 °FPartly sunny.9 mph57%29.72 "Hg9 mi
2:00 PM59 °FPartly sunny.7 mph69%29.72 "Hg6 mi
1:00 PM64 °FPartly sunny.12 mph46%29.70 "Hg9 mi
12:00 PM59 °FPartly sunny.3 mph74%29.71 "Hg7 mi
11:00 AM55 °FPartly sunny.3 mph91%29.70 "Hg7 mi
10:00 AM53 °FRain showers. Overcast.3 mph96%29.72 "Hg3 mi
9:00 AM53 °FSprinkles. Overcast.6 mph94%29.72 "Hg3 mi
Weather by CustomWeather, © 2014

See weather overview